Flag for Iran Weather past 2 weeks in Esfahãn, Iran

Now
61 °F

Clear.


Feels Like: 61 °F
Forecast: 73 / 95 °F
Wind: 7 mph from West

Location: Esfahan

Current Time: Aug 21, 2014 at 5:03:15 AM

Latest Report: Aug 21, 2014 at 4:30 AM


Visibility: 3 mi

Pressure: 30.07 "Hg

Humidity: 34%

Dew point: 32 °F

Location of EsfahãnLocation

Historic Weather in Esfahãn — Graph

°F

Esfahãn temperature yesterday

Maximum temperature yesterday: 95 °F (at 1:30 PM)
Minimum temperature yesterday: 63 °F (at 7:00 AM)
Average temperature yesterday: 82 °F

Past Weeks' High & Low Weather Summary

 TemperatureHumidityPressure
High104 °F (Aug 6, 4:30 PM)49% (Aug 16, 4:30 AM)30.15 "Hg (Aug 16, 4:30 AM)
Low55 °F (Aug 11, 6:00 AM)3% (Aug 6, 4:30 PM)29.68 "Hg (Aug 6, 7:30 PM)
Average83 °F14%29.95 "Hg
* Reported Aug 6 3:30 AM — Aug 21 4:00 AM, Esfahãn, Weather by CustomWeather, © 2014

Note: Actual official high and low records may vary slightly from our data, if they occured in-between our weather recording intervals... More about our weather records

Advertising

Esfahãn weather history for previous 24 hours

 ConditionsComfort  
Time TempWeatherWind HumidityBarometerVisibility
4:00 AM
Aug 21
63 °FClear.5 mph30%30.07 "Hg3 mi
3:30 AM64 °FClear.No wind30%30.07 "Hg3 mi
3:00 AM66 °FClear.9 mph28%30.07 "Hg2 mi
2:30 AM64 °FClear.7 mph34%30.07 "Hg4 mi
2:00 AM68 °FClear.7 mph30%30.07 "Hg5 mi
1:30 AM66 °FClear.9 mph30%30.07 "Hg10 mi
1:00 AM66 °FClear.9 mph22%30.09 "Hg10 mi
12:30 AM70 °FClear.7 mph21%30.07 "Hg10 mi
12:00 AM72 °FClear.No wind22%30.07 "Hg10 mi
11:30 PM
Aug 20
72 °FClear.No wind22%30.09 "Hg10 mi
11:00 PM70 °FClear.7 mph23%30.09 "Hg10 mi
10:30 PM70 °FClear.7 mph21%30.09 "Hg10 mi
10:00 PM77 °FClear.7 mph18%30.07 "Hg10 mi
9:30 PM81 °FPassing clouds.5 mph16%30.07 "HgN/A
9:00 PM84 °FPassing clouds.5 mph14%30.07 "HgN/A
8:30 PM84 °FPassing clouds.5 mph15%30.07 "HgN/A
8:00 PM86 °FPassing clouds.7 mph13%30.07 "HgN/A
7:30 PM90 °FPassing clouds.7 mph13%30.07 "HgN/A
7:00 PM91 °FPassing clouds.9 mph11%30.04 "HgN/A
6:30 PM91 °FPassing clouds.12 mph11%30.04 "HgN/A
6:00 PM93 °FPassing clouds.7 mph10%30.04 "HgN/A
5:30 PM93 °FHaze.7 mph11%30.04 "Hg3 mi
5:00 PM95 °FScattered clouds.5 mph9%30.04 "HgN/A
4:30 PM93 °FScattered clouds.7 mph11%30.07 "HgN/A
4:00 PM91 °FScattered clouds.9 mph10%30.07 "HgN/A
3:30 PM91 °FSandstorm.18 mph12%30.07 "Hg2 mi
3:00 PM95 °FPartly sunny.14 mph10%30.07 "HgN/A
2:30 PM93 °FPartly sunny.9 mph10%30.09 "HgN/A
2:00 PM95 °FPartly sunny.14 mph9%30.09 "HgN/A
1:30 PM95 °FScattered clouds.7 mph10%30.09 "Hg5 mi
1:00 PM93 °FPassing clouds.9 mph11%30.12 "Hg4 mi
12:30 PM91 °FPassing clouds.9 mph13%30.12 "Hg4 mi
12:00 PM91 °FPassing clouds.12 mph14%30.12 "Hg4 mi
11:30 AM90 °FSunny.12 mph14%30.15 "Hg4 mi
10:55 AM88 °FSunny.12 mph16%30.15 "Hg4 mi
10:30 AM86 °FSunny.9 mph17%30.15 "Hg4 mi
10:00 AM84 °FSunny.9 mph19%30.15 "Hg3 mi
9:30 AM81 °FSunny.9 mph21%30.15 "Hg3 mi
9:00 AM79 °FSunny.9 mph23%30.15 "Hg3 mi
8:30 AM75 °FSunny.9 mph24%30.15 "Hg3 mi
8:00 AM72 °FSunny.7 mph25%30.15 "Hg3 mi
7:30 AM68 °FClear.7 mph28%30.12 "Hg4 mi
7:00 AM63 °FClear.7 mph32%30.12 "Hg4 mi
6:30 AM66 °FClear.5 mph32%30.12 "Hg3 mi
6:00 AM68 °FClear.7 mph30%30.12 "Hg10 mi
5:30 AM64 °FClear.12 mph32%30.09 "Hg10 mi
Weather by CustomWeather, © 2014

See weather overviewHow to use our weather pages